When you browse on this site, cookies collect data to enhance your experience and personalize the content and advertising you see.
Visit our Privacy Policy to learn more. By continuing to use the site, you agree to this use of cookies and data.
  • în România
  • Lista ţărilor
  • Pe 7 zile
  • Temperatura apei
  • Hartă satelitară
  • Meteo pe hartă
  • Widget-uri
  • user-avatar
    Intrare

    Meteo pe oră la Krugloe

    Astăzi, 19 Aprilie, Vineri

    Timp Temperatura Precipitaţii Vânt Presiune Umiditate
    00:00 +2°C° 0 mm 2 m/s 757 mmHg 89%
    01:00 +3°C° 0 mm 1 m/s 757 mmHg 89%
    02:00 +2°C° 0 mm 1 m/s 757 mmHg 89%
    03:00 +2°C° 0 mm 1 m/s 758 mmHg 89%
    04:00 +1°C° 0 mm 1 m/s 758 mmHg 89%
    05:00 +1°C° 0 mm 1 m/s 758 mmHg 89%
    06:00 +3°C° 0 mm 1 m/s 758 mmHg 79%
    07:00 +5°C° 0 mm 1 m/s 758 mmHg 70%
    08:00 +7°C° 0 mm 1 m/s 758 mmHg 60%
    09:00 +8°C° 0 mm 1 m/s 758 mmHg 54%
    10:00 +10°C° 0 mm 1 m/s 758 mmHg 48%
    11:00 +11°C° 0 mm 1 m/s 757 mmHg 42%
    12:00 +12°C° 0 mm 1 m/s 757 mmHg 40%
    13:00 +12°C° 0 mm 1 m/s 757 mmHg 39%
    14:00 +13°C° 0 mm 1 m/s 756 mmHg 37%
    15:00 +13°C° 0 mm 1 m/s 756 mmHg 38%
    16:00 +12°C° 0 mm 1 m/s 755 mmHg 39%
    17:00 +12°C° 0 mm 1 m/s 755 mmHg 40%
    18:00 +11°C° 0 mm 1 m/s 755 mmHg 45%
    19:00 +9°C° 0 mm 1 m/s 754 mmHg 50%
    20:00 +7°C° 0 mm 2 m/s 754 mmHg 55%
    21:00 +6°C° 0 mm 2 m/s 754 mmHg 57%
    22:00 +6°C° 0 mm 2 m/s 753 mmHg 60%
    23:00 +6°C° 0 mm 2 m/s 753 mmHg 62%

    Mâine, 20 Aprilie, Sâmbătă

    Timp Temperatura Precipitaţii Vânt Presiune Umiditate
    00:00 +6°C° 0.3 mm 2 m/s 753 mmHg 67%
    01:00 +5°C° 0.3 mm 2 m/s 753 mmHg 73%
    02:00 +5°C° 0.3 mm 2 m/s 752 mmHg 78%
    03:00 +5°C° 0.4 mm 2 m/s 752 mmHg 82%
    04:00 +5°C° 0.4 mm 2 m/s 752 mmHg 87%
    05:00 +5°C° 0.4 mm 2 m/s 752 mmHg 91%
    06:00 +5°C° 0.2 mm 2 m/s 752 mmHg 88%
    07:00 +6°C° 0.2 mm 2 m/s 752 mmHg 85%
    08:00 +7°C° 0.2 mm 3 m/s 752 mmHg 81%
    09:00 +8°C° 0.1 mm 3 m/s 752 mmHg 75%
    10:00 +8°C° 0.1 mm 2 m/s 752 mmHg 69%
    11:00 +9°C° 0.1 mm 2 m/s 752 mmHg 62%
    12:00 +10°C° 0.1 mm 2 m/s 752 mmHg 59%
    13:00 +10°C° 0.1 mm 2 m/s 752 mmHg 56%
    14:00 +10°C° 0.1 mm 2 m/s 752 mmHg 53%
    15:00 +10°C° 0.1 mm 2 m/s 752 mmHg 55%
    16:00 +10°C° 0.1 mm 2 m/s 752 mmHg 56%
    17:00 +9°C° 0.1 mm 2 m/s 752 mmHg 58%
    18:00 +8°C° 0 mm 2 m/s 752 mmHg 65%
    19:00 +6°C° 0 mm 2 m/s 752 mmHg 73%
    20:00 +5°C° 0 mm 2 m/s 753 mmHg 81%
    21:00 +4°C° 0 mm 2 m/s 753 mmHg 84%
    22:00 +4°C° 0 mm 2 m/s 753 mmHg 88%
    23:00 +3°C° 0 mm 2 m/s 753 mmHg 92%

    Poimâine, 21 Aprilie, Duminică

    Timp Temperatura Precipitaţii Vânt Presiune Umiditate
    00:00 +4°C° 0 mm 1 m/s 753 mmHg 93%
    01:00 +3°C° 0 mm 1 m/s 754 mmHg 94%
    02:00 +3°C° 0 mm 1 m/s 754 mmHg 95%
    03:00 +3°C° 0 mm 1 m/s 754 mmHg 95%
    04:00 +3°C° 0 mm 1 m/s 754 mmHg 95%
    05:00 +2°C° 0 mm 1 m/s 754 mmHg 95%
    06:00 +4°C° 0 mm 1 m/s 755 mmHg 89%
    07:00 +5°C° 0 mm 2 m/s 755 mmHg 82%
    08:00 +7°C° 0 mm 2 m/s 755 mmHg 76%
    09:00 +8°C° 0 mm 2 m/s 755 mmHg 69%
    10:00 +10°C° 0 mm 2 m/s 755 mmHg 62%
    11:00 +12°C° 0 mm 2 m/s 755 mmHg 55%
    12:00 +13°C° 0 mm 1 m/s 755 mmHg 54%
    13:00 +14°C° 0 mm 1 m/s 755 mmHg 53%
    14:00 +14°C° 0 mm 1 m/s 755 mmHg 51%
    15:00 +14°C° 0 mm 1 m/s 755 mmHg 52%
    16:00 +13°C° 0 mm 0 m/s 755 mmHg 53%
    17:00 +12°C° 0 mm 0 m/s 755 mmHg 54%
    18:00 +11°C° 0 mm 0 m/s 755 mmHg 61%
    19:00 +9°C° 0 mm 0 m/s 755 mmHg 67%
    20:00 +7°C° 0 mm 0 m/s 755 mmHg 74%
    21:00 +7°C° 0 mm 0 m/s 755 mmHg 76%
    22:00 +6°C° 0 mm 0 m/s 755 mmHg 79%
    23:00 +6°C° 0 mm 0 m/s 755 mmHg 81%

    22 Aprilie, Luni

    Timp Temperatura Precipitaţii Vânt Presiune Umiditate
    00:00 +6°C° 0 mm 0 m/s 756 mmHg 83%
    01:00 +5°C° 0 mm 0 m/s 756 mmHg 84%
    02:00 +5°C° 0 mm 0 m/s 756 mmHg 86%
    03:00 +5°C° 0 mm 0 m/s 756 mmHg 86%
    04:00 +6°C° 0 mm 1 m/s 756 mmHg 87%
    05:00 +5°C° 0 mm 1 m/s 756 mmHg 87%
    06:00 +7°C° 0 mm 1 m/s 756 mmHg 78%
    07:00 +10°C° 0 mm 1 m/s 756 mmHg 70%
    08:00 +12°C° 0 mm 1 m/s 757 mmHg 62%
    09:00 +13°C° 0 mm 1 m/s 756 mmHg 54%
    10:00 +14°C° 0 mm 1 m/s 756 mmHg 47%
    11:00 +16°C° 0 mm 1 m/s 756 mmHg 39%
    12:00 +16°C° 0 mm 2 m/s 756 mmHg 38%
    13:00 +17°C° 0 mm 2 m/s 756 mmHg 37%
    14:00 +17°C° 0 mm 2 m/s 756 mmHg 35%
    15:00 +17°C° 0 mm 2 m/s 755 mmHg 38%
    16:00 +17°C° 0 mm 2 m/s 755 mmHg 41%
    17:00 +16°C° 0 mm 1 m/s 755 mmHg 44%
    18:00 +14°C° 0 mm 1 m/s 755 mmHg 49%
    19:00 +13°C° 0 mm 1 m/s 755 mmHg 55%
    20:00 +11°C° 0 mm 1 m/s 755 mmHg 61%
    21:00 +10°C° 0 mm 1 m/s 755 mmHg 64%
    22:00 +9°C° 0 mm 1 m/s 756 mmHg 66%
    23:00 +9°C° 0 mm 1 m/s 756 mmHg 69%

    23 Aprilie, Marţi

    Timp Temperatura Precipitaţii Vânt Presiune Umiditate
    00:00 +8°C° 0 mm 1 m/s 756 mmHg 70%
    01:00 +8°C° 0 mm 1 m/s 756 mmHg 70%
    02:00 +8°C° 0 mm 1 m/s 756 mmHg 71%
    03:00 +7°C° 0 mm 1 m/s 756 mmHg 72%
    04:00 +7°C° 0 mm 1 m/s 757 mmHg 72%
    05:00 +6°C° 0 mm 2 m/s 757 mmHg 73%
    06:00 +8°C° 0 mm 2 m/s 757 mmHg 68%
    07:00 +10°C° 0 mm 2 m/s 757 mmHg 64%
    08:00 +13°C° 0 mm 2 m/s 757 mmHg 59%
    09:00 +15°C° 0 mm 2 m/s 757 mmHg 53%
    10:00 +16°C° 0 mm 3 m/s 757 mmHg 47%
    11:00 +18°C° 0 mm 3 m/s 757 mmHg 41%
    12:00 +18°C° 0 mm 3 m/s 757 mmHg 40%
    13:00 +18°C° 0 mm 3 m/s 757 mmHg 38%
    14:00 +19°C° 0 mm 3 m/s 757 mmHg 37%
    15:00 +18°C° 0 mm 3 m/s 756 mmHg 39%
    16:00 +18°C° 0 mm 2 m/s 756 mmHg 41%
    17:00 +18°C° 0 mm 2 m/s 756 mmHg 44%
    18:00 +16°C° 0 mm 2 m/s 756 mmHg 49%
    19:00 +14°C° 0 mm 2 m/s 756 mmHg 54%
    20:00 +12°C° 0 mm 1 m/s 756 mmHg 59%
    21:00 +11°C° 0 mm 1 m/s 757 mmHg 61%
    22:00 +10°C° 0 mm 2 m/s 757 mmHg 62%
    23:00 +9°C° 0 mm 2 m/s 757 mmHg 64%

    24 Aprilie, Miercuri

    Timp Temperatura Precipitaţii Vânt Presiune Umiditate
    00:00 +10°C° 0 mm 1 m/s 757 mmHg 65%
    01:00 +9°C° 0 mm 1 m/s 757 mmHg 66%
    02:00 +9°C° 0 mm 1 m/s 758 mmHg 68%
    03:00 +8°C° 0 mm 1 m/s 758 mmHg 69%
    04:00 +8°C° 0 mm 1 m/s 758 mmHg 70%
    05:00 +8°C° 0 mm 1 m/s 758 mmHg 71%
    06:00 +10°C° 0 mm 1 m/s 758 mmHg 64%
    07:00 +12°C° 0 mm 1 m/s 759 mmHg 58%
    08:00 +15°C° 0 mm 1 m/s 759 mmHg 51%
    09:00 +16°C° 0 mm 2 m/s 759 mmHg 46%
    10:00 +17°C° 0 mm 2 m/s 758 mmHg 41%
    11:00 +19°C° 0 mm 2 m/s 758 mmHg 36%
    12:00 +19°C° 0 mm 2 m/s 758 mmHg 35%
    13:00 +20°C° 0 mm 2 m/s 758 mmHg 33%
    14:00 +20°C° 0 mm 2 m/s 758 mmHg 32%
    15:00 +21°C° 0 mm 1 m/s 758 mmHg 34%
    16:00 +21°C° 0 mm 1 m/s 757 mmHg 37%
    17:00 +20°C° 0 mm 1 m/s 757 mmHg 39%
    18:00 +16°C° 0 mm 0 m/s 757 mmHg 44%
    19:00 +14°C° 0 mm 0 m/s 757 mmHg 48%
    20:00 +12°C° 0 mm 0 m/s 757 mmHg 53%
    21:00 +12°C° 0 mm 0 m/s 757 mmHg 54%
    22:00 +11°C° 0 mm 0 m/s 757 mmHg 56%
    23:00 +11°C° 0 mm 0 m/s 758 mmHg 58%
    Arată mai mult